Location: Central Falls
(41.8900°N, 71.3929°W)
Time: 10:48:17
(UTC+00:00)

A-11 Canister half - Pass Details

Date: 11 December 2023
Orbit: 1512 x 1687 km, 47.2° (Epoch: 20 February)

Event Time Altitude Azimuth Distance (km) Brightness Sun altitude
Rises 05:33:02 0° 268° (W) 4,727 - -67.9°
Reaches altitude 10° 05:36:07 10° 272° (W) 3,765 - -67.6°
Maximum altitude 05:45:40 66° 354° (N) 1,741 - -66.5°
Drops below altitude 10° 05:55:36 10° 76° (ENE) 3,905 - -65.2°
Exits shadow 05:56:01 - 77° (ENE) 4,035 11.4 -65.1°
Sets 05:58:51 0° 79° (E) 4,910 11.9 -64.7°
